Date,TemperatureHighF,TemperatureAvgF,TemperatureLowF,DewpointHighF,DewpointAvgF,DewpointLowF,HumidityHigh,HumidityAvg,HumidityLow,PressureMaxIn,PressureMinIn,WindSpeedMaxMPH,WindSpeedAvgMPH,GustSpeedMaxMPH,PrecipitationSumIn
2013-2-1,7.3,-1.8,-12.1,-5.4,-18.0,-25.9,61,42,22,30.36,30.05,4,1,7,0.00
2013-2-2,19.2,8.3,1.0,-1.3,-6.2,-10.5,62,50,29,30.19,29.96,4,1,8,0.00
2013-2-3,18.3,11.7,3.7,2.7,-2.1,-7.6,67,53,35,30.08,29.95,5,1,9,0.00
2013-2-4,20.5,12.8,5.2,5.0,-4.0,-9.4,67,47,28,30.05,29.72,4,1,8,0.00
2013-2-5,36.1,23.0,9.7,22.7,12.0,-0.6,80,63,40,30.07,29.61,7,1,11,0.05
2013-2-6,27.5,16.9,5.4,16.2,7.1,-6.3,73,64,58,30.10,29.78,5,1,58,48.60
2013-2-7,27.9,25.9,22.1,19.3,17.6,14.8,80,70,61,30.22,29.94,8,3,14,0.00
2013-2-8,34.9,24.9,20.1,17.0,11.7,6.5,70,58,35,30.35,30.18,5,2,8,0.01
2013-2-9,33.3,29.3,25.5,25.7,21.7,16.5,82,73,67,30.19,29.88,8,2,12,0.01
2013-2-10,33.8,31.1,28.4,30.2,26.5,22.7,89,83,77,29.89,29.21,7,2,13,0.00
2013-2-11,30.2,25.8,17.4,27.2,16.5,6.6,89,68,56,30.01,29.27,0,0,0,0.00
2013-2-12,43.0,26.8,14.9,22.5,14.1,5.3,72,59,42,30.02,29.75,7,1,11,0.20
2013-2-13,46.2,30.4,18.7,28.4,20.4,10.2,84,67,43,29.77,29.49,3,1,5,0.11
2013-2-14,37.9,27.8,14.9,29.1,15.2,-5.1,88,62,25,30.16,29.51,5,0,10,0.08
2013-2-15,24.6,13.5,5.4,0.3,-5.0,-8.3,55,42,26,30.28,30.16,5,1,10,0.00
2013-2-16,28.0,12.1,1.2,3.3,-4.2,-11.0,62,47,27,30.26,30.09,3,0,5,0.00
2013-2-17,35.8,22.7,8.1,18.5,8.7,-4.3,63,54,43,30.11,29.58,8,2,14,0.01
2013-2-18,34.5,24.0,7.9,27.3,13.1,-4.2,77,63,51,29.91,29.46,7,2,14,49.02
2013-2-19,13.6,6.4,-0.8,-2.6,-11.2,-16.7,60,41,27,30.38,29.79,116,3,17,48.84
2013-2-20,24.4,9.1,-4.5,-3.1,-9.3,-17.2,56,41,26,30.48,30.37,5,1,9,0.00
2013-2-21,25.7,17.0,6.4,6.4,-0.1,-6.9,58,46,33,30.45,30.05,7,2,11,0.00
2013-2-22,31.5,24.2,19.6,20.2,15.0,6.0,79,68,50,30.05,29.80,6,2,9,0.03
2013-2-23,40.3,25.9,20.1,22.7,15.9,11.6,75,66,45,29.93,29.78,4,1,8,0.03
2013-2-24,43.3,26.0,11.5,21.0,12.7,3.6,73,58,39,30.07,29.93,4,0,6,0.00
2013-2-25,46.6,31.3,21.4,22.8,17.7,14.2,74,58,37,30.06,29.96,2,0,4,0.00
2013-2-26,41.2,29.4,20.8,25.2,19.1,14.2,75,66,51,30.02,29.82,8,2,14,49.08
2013-2-27,42.4,33.4,11.5,24.2,21.1,-1.0,71,61,44,29.94,29.74,12,5,17,49.08
2013-2-28,30.9,29.5,24.6,19.9,16.7,10.0,64,58,50,30.19,29.94,7,4,12,0.00